User: anonymous   Login
Location: Monteux
(44.0348°N, 4.9972°E)
Time: 11:53:04
(UTC+00:00)
Language:

YAOGAN 6 - Orbit

View from above orbital plane
View from above orbital plane
View from above satellite
View from above satellite

Ground track
Ground track

The orbit data is extracted from the following two-line orbital elements,

1 34839U 09021A   21061.89821667  .00000917  00000-0  36493-4 0  9992
2 34839  97.0451  61.7074 0027636 176.1486 183.9972 15.27312999659240
Epoch (UTC): 02 March 2021 21:33:25
Eccentricity: 0.0027636
inclination: 97.0451°
perigee height: 465 km
apogee height: 503 km
right ascension of ascending node: 61.7074°
argument of perigee: 176.1486°
revolutions per day: 15.27312999
mean anomaly at epoch: 183.9972°
orbit number at epoch: 65924

The dashed part of the orbit path shows where the satellite is in the earth's shadow,  

DLR